Date String (YYYY-MM-DD hh:mm:ss) UTC,Instrument flags,Ambient pressure (hPa),Sample flow (lpm),Bypass flow (lpm),Sample temperature (°C),Ambient temperature (°C),ASC tube jacket temperature (°C),LED temperature (°C),Box temperature (°C),Sample RH (%),Span deviation,Mass concentration (μg/m³),Mass concentration (μg/m³),Mass concentration (μg/m³)
DateTimeUTC,F1_M11,P_M11,Q1_M11,Q2_M11,T1_M11,T2_M11,T3_M11,T4_M11,T5_M11,U1_M11,ZSPAN_M11,X0_M11,X2_M11,X1_M11
2021-11-07 15:00:00,,0825.6,5.00,0.00,29.1,28.3,00.0,38.1,30.8,07.4,0000.0,0005.77,0001.69,0001.31
2021-11-07 15:01:00,,0825.6,5.00,0.00,29.1,28.3,00.0,38.1,30.8,07.7,0000.0,0005.37,0001.65,0001.32
2021-11-07 15:02:00,,0825.6,4.99,0.00,29.1,28.3,00.0,38.1,30.8,07.7,0000.0,0005.43,0001.65,0001.31
2021-11-07 15:03:00,,0825.6,5.00,0.00,29.1,28.3,00.0,38.1,30.9,07.4,0000.0,0005.40,0001.62,0001.29
2021-11-07 15:04:00,,0825.5,5.01,0.00,29.1,28.4,00.0,38.1,30.9,07.5,0000.0,0005.45,0001.60,0001.27
2021-11-07 15:05:00,,0825.6,5.00,0.00,29.1,28.4,00.0,38.1,30.9,07.4,0000.0,0004.68,0001.56,0001.26
2021-11-07 15:06:00,,0825.5,5.00,0.00,29.1,28.4,00.0,38.1,30.9,07.4,0000.0,0005.07,0001.52,0001.24
2021-11-07 15:07:00,,0825.6,5.00,0.00,29.1,28.4,00.0,38.1,30.9,07.5,0000.0,0005.51,0001.58,0001.23
2021-11-07 15:08:00,,0825.6,5.00,0.00,29.2,28.4,00.0,38.2,30.9,07.6,0000.0,0004.98,0001.61,0001.23
2021-11-07 15:09:00,,0825.6,4.99,0.00,29.2,28.4,00.0,38.2,30.9,07.7,0000.0,0005.25,0001.57,0001.22
2021-11-07 15:10:00,,0825.7,5.01,0.00,29.2,28.4,00.0,38.2,30.9,07.7,0000.0,0005.75,0001.60,0001.22
2021-11-07 15:11:00,,0825.6,5.00,0.00,29.2,28.5,00.0,38.2,30.9,07.9,0000.0,0005.46,0001.58,0001.19
2021-11-07 15:12:00,,0825.6,5.00,0.00,29.2,28.5,00.0,38.2,31.0,07.8,0000.0,0004.84,0001.58,0001.18
2021-11-07 15:13:00,,0825.6,4.99,0.00,29.2,28.5,00.0,38.2,31.0,07.6,0000.0,0004.92,0001.56,0001.17
2021-11-07 15:14:00,,0825.6,5.00,0.00,29.3,28.6,00.0,38.2,31.0,07.7,0000.0,0005.13,0001.60,0001.16
2021-11-07 15:15:00,,0825.6,5.01,0.00,29.3,28.6,00.0,38.2,31.0,07.7,0000.0,0005.09,0001.62,0001.17
2021-11-07 15:16:00,,0825.6,5.00,0.00,29.3,28.6,00.0,38.2,31.1,07.8,0000.0,0005.15,0001.60,0001.16
2021-11-07 15:17:00,,0825.6,4.98,0.00,29.3,28.6,00.0,38.2,31.1,07.8,0000.0,0004.39,0001.61,0001.15
2021-11-07 15:18:00,,0825.6,5.00,0.00,29.3,28.6,00.0,38.3,31.1,07.7,0000.0,0003.77,0001.57,0001.15
2021-11-07 15:19:00,,0825.6,5.00,0.00,29.4,28.7,00.0,38.3,31.1,07.6,0000.0,0003.74,0001.56,0001.15
2021-11-07 15:20:00,,0825.6,5.00,0.00,29.4,28.7,00.0,38.3,31.2,07.6,0000.0,0004.35,0001.59,0001.15
2021-11-07 15:21:00,,0825.7,5.01,0.00,29.4,28.7,00.0,38.3,31.2,07.7,0000.0,0004.44,0001.56,0001.15
2021-11-07 15:22:00,,0825.6,5.00,0.00,29.4,28.7,00.0,38.3,31.2,07.6,0000.0,0005.46,0001.52,0001.15
2021-11-07 15:23:00,,0825.6,4.99,0.00,29.4,28.7,00.0,38.3,31.2,07.5,0000.0,0005.64,0001.54,0001.15
2021-11-07 15:24:00,,0825.7,4.98,0.00,29.5,28.8,00.0,38.4,31.2,07.4,0000.0,0006.28,0001.54,0001.15
2021-11-07 15:25:00,,0825.7,5.01,0.00,29.5,28.8,00.0,38.4,31.3,07.2,0000.0,0006.40,0001.53,0001.17
2021-11-07 15:26:00,,0825.7,5.00,0.00,29.5,28.8,00.0,38.4,31.3,07.3,0000.0,0006.56,0001.54,0001.17
2021-11-07 15:27:00,,0825.6,5.00,0.00,29.5,28.8,00.0,38.4,31.3,07.4,0000.0,0006.54,0001.55,0001.18
2021-11-07 15:28:00,,0825.6,5.01,0.00,29.5,28.8,00.0,38.4,31.3,07.2,0000.0,0006.49,0001.55,0001.19
2021-11-07 15:29:00,,0825.6,4.99,0.00,29.6,28.9,00.0,38.5,31.3,07.1,0000.0,0006.50,0001.57,0001.19
2021-11-07 15:30:00,,0825.7,5.00,0.00,29.6,28.9,00.0,38.5,31.3,07.2,0000.0,0006.41,0001.54,0001.20
2021-11-07 15:31:00,,0825.7,5.01,0.00,29.6,28.9,00.0,38.5,31.4,07.4,0000.0,0005.91,0001.57,0001.20
2021-11-07 15:32:00,,0825.8,5.01,0.00,29.6,28.9,00.0,38.5,31.4,07.3,0000.0,0005.27,0001.57,0001.20
2021-11-07 15:33:00,,0825.7,5.00,0.00,29.6,28.9,00.0,38.5,31.4,07.2,0000.0,0004.08,0001.59,0001.21
2021-11-07 15:34:00,,0825.7,5.00,0.00,29.7,29.0,00.0,38.5,31.4,07.2,0000.0,0003.89,0001.55,0001.21
2021-11-07 15:35:00,,0825.6,5.00,0.00,29.7,29.0,00.0,38.6,31.4,07.3,0000.0,0003.01,0001.57,0001.22
2021-11-07 15:36:00,,0825.6,5.01,0.00,29.7,29.0,00.0,38.6,31.4,07.4,0000.0,0003.57,0001.61,0001.22
2021-11-07 15:37:00,,0825.6,5.01,0.00,29.7,29.1,00.0,38.6,31.5,07.3,0000.0,0003.52,0001.63,0001.23
2021-11-07 15:38:00,,0825.6,5.00,0.00,29.7,29.1,00.0,38.6,31.5,07.2,0000.0,0004.00,0001.67,0001.24
2021-11-07 15:39:00,,0825.6,5.01,0.00,29.8,29.1,00.0,38.6,31.6,07.3,0000.0,0003.95,0001.64,0001.24
2021-11-07 15:40:00,,0825.6,4.99,0.00,29.8,29.2,00.0,38.7,31.6,07.2,0000.0,0003.98,0001.65,0001.26
2021-11-07 15:41:00,,0825.6,5.00,0.00,29.8,29.2,00.0,38.7,31.6,07.1,0000.0,0004.05,0001.68,0001.26
2021-11-07 15:42:00,,0825.7,5.00,0.00,29.9,29.2,00.0,38.7,31.7,07.0,0000.0,0003.78,0001.66,0001.26
2021-11-07 15:43:00,,0825.6,5.00,0.00,29.9,29.2,00.0,38.7,31.7,07.0,0000.0,0003.82,0001.68,0001.27
2021-11-07 15:44:00,,0825.6,5.00,0.00,29.9,29.3,00.0,38.7,31.7,06.9,0000.0,0003.92,0001.68,0001.28
2021-11-07 15:45:00,,0825.6,4.99,0.00,29.9,29.3,00.0,38.8,31.7,07.0,0000.0,0004.09,0001.73,0001.29
2021-11-07 15:46:00,,0825.6,5.00,0.00,30.0,29.3,00.0,38.8,31.8,07.1,0000.0,0004.14,0001.76,0001.30
2021-11-07 15:47:00,,0825.6,4.99,0.00,30.0,29.3,00.0,38.8,31.8,07.0,0000.0,0003.51,0001.74,0001.30
2021-11-07 15:48:00,,0825.6,5.00,0.00,30.0,29.4,00.0,38.8,31.8,06.9,0000.0,0003.34,0001.70,0001.30
2021-11-07 15:49:00,,0825.6,5.00,0.00,30.0,29.4,00.0,38.9,31.9,06.9,0000.0,0002.88,0001.67,0001.30
2021-11-07 15:50:00,,0825.6,5.00,0.00,30.1,29.4,00.0,38.9,31.9,06.8,0000.0,0002.82,0001.70,0001.32
2021-11-07 15:51:00,,0825.6,4.99,0.00,30.1,29.5,00.0,38.9,31.9,06.9,0000.0,0002.77,0001.69,0001.31
2021-11-07 15:52:00,,0825.6,5.02,0.00,30.1,29.5,00.0,39.0,32.0,06.9,0000.0,0003.22,0001.66,0001.31
2021-11-07 15:53:00,,0825.6,5.01,0.00,30.2,29.5,00.0,39.0,32.0,06.9,0000.0,0003.70,0001.65,0001.32
2021-11-07 15:54:00,,0825.5,4.99,0.00,30.2,29.5,00.0,39.0,32.0,06.8,0000.0,0003.75,0001.69,0001.33
2021-11-07 15:55:00,,0825.5,5.01,0.00,30.2,29.6,00.0,39.0,32.0,06.7,0000.0,0003.70,0001.71,0001.35
2021-11-07 15:56:00,,0825.5,5.00,0.00,30.2,29.6,00.0,39.1,32.0,06.6,0000.0,0003.67,0001.72,0001.34
2021-11-07 15:57:00,,0825.6,5.01,0.00,30.3,29.6,00.0,39.1,32.1,06.6,0000.0,0003.70,0001.75,0001.33
2021-11-07 15:58:00,,0825.5,5.00,0.00,30.3,29.7,00.0,39.1,32.1,06.6,0000.0,0003.67,0001.74,0001.33
2021-11-07 15:59:00,,0825.5,4.99,0.00,30.3,29.7,00.0,39.1,32.1,06.8,0000.0,0003.63,0001.78,0001.35
